Погода во Влодаве

Польша     51°32′53″N   23°32′58″E
темп.,
°C
ветер,
м/с
пор.,
м/с
влажн.,
%
обл.,
%
осадки,
мм/ч
давл.,
гПа
погр.,
м
25 февраля, чт
чт2501:00+4зюз239277 0.0 103261
04:00+3зюз23910 0.0 103158
07:00+3зюз239017 0.0 103170
10:00+8зюз247983 0.0 1031181
13:00+11юз237366 0.0 1030254
16:00+10ююз26820 0.0 1028172
19:00+7юз36890 0.0 1028124
22:00+6юз37870 0.0 1027132
26 февраля, пт
пт2601:00+5зюз411890 0.0 1026219
04:00+5зюз410910 0.0 1025234
07:00+5з410940 0.0 1025240
10:00+8з598825 0.0 1025447
13:00+9з588659 0.0 1025589
16:00+9зсз31077100 0.0 1023711
19:00+7зсз41270100 0.0 1023574
22:00+5зсз51281100 0.0 1023761
27 февраля, сб
сб2701:00+3зсз5128788 0.0 1024692
04:00+3зсз61084100 0.0 1023874
07:00+3зсз61286100 0.1 1023710
10:00+4зсз61183100 0.0 1023893
13:00+5сз7117299 0.1 10241277
16:00+5сз61166100 0.1 10241196
19:00+3сз5127284 0.1 1026669
22:00+1сз512780 0.0 1027555
28 февраля, вс
вс2801:000сз411880 0.0 1029450
04:00−1сз4109213 0.0 1030450
07:00−1сз488931 0.0 1030420
10:00+2сз467363 0.0 1031556
13:00+4сз466482 0.0 1031846
16:00+3сз3769100 0.0 1031373
19:00+1сз2583100 0.0 1032132
22:000ссз2386100 0.0 103485
1 марта, пн
пн101:00−1сз229392 0.0 103550
04:00−1сз249647 0.0 1035101
07:000ссз249739 0.0 1036182
10:00+4с357958 0.0 1037551
13:00+4ссз347878 0.0 1038602
16:00+4сз228180 0.1 103892
19:00+3зсз118688 0.1 103822
22:00+2зсз248897 0.0 103992